Location: Beacon Field Observatory
(38.7700°N, 77.0829°W)
Time: 19:16:14
(UTC-05:00)

UKube-1 - Pass Details

Date: 11 December 2019
Orbit: 614 x 618 km, 98.5° (Epoch: 21 January)

Event Time Altitude Azimuth Distance (km) Brightness Sun altitude
Rises 18:01:40 0° 7° (N) 2,898 ? -14.2°
Reaches altitude 10° 18:03:54 10° 2° (N) 1,988 ? -14.6°
Maximum altitude 18:08:04 51° 287° (WNW) 785 ? -15.4°
Drops below altitude 10° 18:12:14 10° 212° (SSW) 1,976 ? -16.1°
Sets 18:14:27 0° 207° (SSW) 2,877 ? -16.6°
